Weather History for KLNS - February, 2014

Change the Weather History Date:

Thursday, February 27, 2014

  Actual Average Record
Temperature  
Mean Temperature 18 °F -  
Max Temperature 28 °F 43 °F 75 °F (1997)
Min Temperature 8 °F 26 °F 8 °F (2014)
Degree Days  
Heating Degree Days 47    
Moisture  
Dew Point 3 °F    
Average Humidity 55    
Maximum Humidity 76    
Minimum Humidity 36    
Precipitation  
Precipitation 0.00 in - - ()
Sea Level Pressure  
Sea Level Pressure 29.84 in    
Wind  
Wind Speed 9 mph (NW)    
Max Wind Speed 29 mph    
Max Gust Speed 36 mph    
Visibility 9 miles    
Events Snow    
Averages and records for this station are not official NWS values.
T = Trace of Precipitation, MM = Missing Value Source: NWS Daily Summary

Daily Weather History Graph

Daily Weather History Graph

Search for Another Location

Airport or City:

Trip Planner

Search our weather history database for the weather conditions in past years. The results will help you decide how hot, cold, wet, or windy it might be!

Date:

Astronomy

Feb. 27, 2014 Rise Set
Actual Time 6:41 AM EST 5:54 PM EST
Civil Twilight 6:14 AM EST 6:22 PM EST
Nautical Twilight 5:42 AM EST 6:53 PM EST
Astronomical Twilight 5:11 AM EST 7:24 PM EST
Moon 5:12 AM EST (2/27) 4:17 PM EST (2/27)
Length of Visible Light 12h 07m
Length of Day
11h 13m
Waning Crescent, 4% of the Moon is Illuminated
Feb 27
Waning Crescent
Mar 1
New
Mar 8
First Quarter
Mar 16
Full
Mar 23
Last Quarter

Hourly Weather History & Observations

Time (EST) Temp. Windchill Dew Point Humidity Pressure Visibility Wind Dir Wind Speed Gust Speed Precip Events Conditions
12:53 AM 10.9 °F - 3.0 °F 70% 29.86 in 8.0 mi Calm Calm - N/A   Clear
1:53 AM 10.9 °F - 1.9 °F 67% 29.85 in 8.0 mi Calm Calm - N/A   Clear
2:53 AM 8.1 °F 1.4 °F 1.9 °F 76% 29.81 in 7.0 mi East 3.5 mph - N/A   Clear
3:53 AM 10.0 °F 3.6 °F 1.0 °F 67% 29.78 in 9.0 mi ENE 3.5 mph - N/A   Clear
4:53 AM 9.0 °F 2.4 °F 1.0 °F 70% 29.76 in 9.0 mi ENE 3.5 mph - N/A   Clear
5:53 AM 8.1 °F 1.4 °F 1.0 °F 73% 29.75 in 5.0 mi ESE 3.5 mph - N/A   Haze
6:53 AM 8.1 °F 1.4 °F -0.0 °F 70% 29.73 in 8.0 mi East 3.5 mph - N/A   Clear
7:53 AM 12.0 °F 2.7 °F 3.0 °F 67% 29.73 in 8.0 mi West 5.8 mph - N/A   Clear
8:53 AM 17.1 °F 7.6 °F 6.1 °F 62% 29.73 in 8.0 mi NW 6.9 mph - N/A   Clear
9:53 AM 23.0 °F 13.9 °F 9.0 °F 55% 29.72 in 10.0 mi WSW 8.1 mph - N/A   Clear
10:53 AM 27.0 °F 14.7 °F 6.1 °F 41% 29.68 in 10.0 mi WSW 16.1 mph 25.3 mph 0.00 in   Mostly Cloudy
11:53 AM 28.0 °F 15.3 °F 6.1 °F 39% 29.68 in 10.0 mi West 18.4 mph 26.5 mph 0.00 in   Mostly Cloudy
1:53 PM 27.0 °F 12.2 °F 7.0 °F 43% 29.70 in 10.0 mi WNW 24.2 mph 29.9 mph N/A   Overcast
2:53 PM 28.9 °F 13.7 °F 5.0 °F 36% 29.71 in 10.0 mi West 28.8 mph 35.7 mph N/A   Partly Cloudy
3:53 PM 28.0 °F 13.0 °F 8.1 °F 43% 29.75 in 10.0 mi WNW 26.5 mph 33.4 mph N/A   Overcast
4:53 PM 24.1 °F 8.3 °F 14.0 °F 65% 29.81 in 2.0 mi WNW 24.2 mph 32.2 mph 0.00 in Snow Light Snow
5:04 PM 24.1 °F 9.4 °F 12.0 °F 60% 29.79 in 9.0 mi WNW 20.7 mph 33.4 mph 0.00 in   Mostly Cloudy
5:12 PM 24.1 °F 9.4 °F 12.0 °F 60% 29.80 in 10.0 mi WNW 20.7 mph - 0.00 in   Mostly Cloudy
5:53 PM 24.1 °F 9.4 °F 9.0 °F 53% 29.86 in 10.0 mi WNW 20.7 mph 33.4 mph 0.00 in   Mostly Cloudy
6:53 PM 19.9 °F 3.5 °F 3.0 °F 48% 29.94 in 10.0 mi WNW 21.9 mph 29.9 mph N/A   Clear
7:53 PM 17.1 °F 2.5 °F -0.9 °F 45% 30.00 in 10.0 mi NW 15.0 mph 28.8 mph N/A   Clear
8:53 PM 15.1 °F -0.6 °F -4.0 °F 43% 30.05 in 10.0 mi NW 16.1 mph - N/A   Clear
9:53 PM 12.9 °F -4.9 °F -9.0 °F 37% 30.11 in 10.0 mi NW 19.6 mph 26.5 mph N/A   Clear
10:53 PM 10.9 °F -5.4 °F -9.0 °F 40% 30.16 in 10.0 mi NW 15.0 mph - N/A   Clear
11:53 PM 10.0 °F -3.7 °F -9.9 °F 40% 30.17 in 10.0 mi NNW 10.4 mph - N/A   Clear